Weather reports worldwide

Advertisment
New York/La Guardia, United States of America (72503): temperature & dewpoint: 09.08.2020 04:00:00 - 15.08.2020 04:00:00 (EDT)New York/La Guardia, United States of America (72503): wind speed & gusts: 09.08.2020 04:00:00 - 15.08.2020 04:00:00 (EDT)New York/La Guardia, United States of America (72503): wind direction: 09.08.2020 04:00:00 - 15.08.2020 04:00:00 (EDT)New York/La Guardia, United States of America (72503): reduced air pressure: 09.08.2020 04:00:00 - 15.08.2020 04:00:00 (EDT)New York/La Guardia, United States of America (72503): visibility: 09.08.2020 04:00:00 - 15.08.2020 04:00:00 (EDT)New York/La Guardia, United States of America (72503): precipitation: 09.08.2020 04:00:00 - 15.08.2020 04:00:00 (EDT)
Date & Time tt [°C] td [°C] ff [km/h] ff [kn] fx [km/h] fx [kn] dd ppp [hPa] vv [km] rr [mm]
15.08.2020 04:00:00 23,9 14,4 9 5 - - NNE 1014,8 16 -
15.08.2020 03:00:00 24,4 16,7 11 6 - - NNE 1014,8 16 -
15.08.2020 02:00:00 24,4 19,4 8 4 - - NE 1014,8 16 0,0
15.08.2020 01:00:00 25,0 19,4 8 4 - - NE 1014,9 16 -
15.08.2020 00:00:00 25,6 19,4 11 6 - - ENE 1015,0 16 -
14.08.2020 23:00:00 25,6 19,4 9 5 - - NE 1015,0 16 0,0
14.08.2020 22:00:00 26,1 19,4 11 6 - - NE 1015,1 16 -
14.08.2020 21:00:00 26,7 18,9 15 8 - - NE 1014,8 16 -
14.08.2020 20:00:00 27,2 18,3 11 6 - - NE 1014,4 16 0,0
14.08.2020 19:00:00 28,3 18,3 13 7 - - NE 1014,3 16 -
14.08.2020 18:00:00 28,9 17,8 16 9 - - NE 1014,5 16 -
14.08.2020 17:00:00 28,9 17,8 15 8 - - NE 1014,6 16 0,0
14.08.2020 16:00:00 30,0 16,1 15 8 - - NE 1014,8 16 -
14.08.2020 15:00:00 30,6 14,4 22 12 - - ENE 1015,1 16 -
14.08.2020 14:00:00 31,1 16,1 22 12 - - NE 1015,5 16 0,0
14.08.2020 13:00:00 28,9 17,8 24 13 - - NE 1015,9 16 -
14.08.2020 12:00:00 28,3 19,4 16 9 - - NE 1016,2 16 -
14.08.2020 11:00:00 26,7 18,9 18 10 - - NE 1016,5 16 0,0
14.08.2020 10:00:00 26,1 18,9 18 10 - - NE 1016,4 16 -
14.08.2020 09:00:00 25,6 18,9 16 9 - - ENE 1016,8 16 -
14.08.2020 08:00:00 25,0 18,9 16 9 - - NE 1016,7 16 0,0
14.08.2020 07:00:00 23,9 20,0 11 6 - - NE 1016,7 16 -
14.08.2020 06:00:00 23,3 20,6 9 5 - - NNE 1016,4 16 -
14.08.2020 05:00:00 23,9 21,1 11 6 - - ENE 1016,3 16 0,0
14.08.2020 04:00:00 24,4 21,1 8 4 - - NE 1016,7 16 -
14.08.2020 03:00:00 24,4 21,7 9 5 - - NE 1016,8 16 -
14.08.2020 02:00:00 24,4 21,7 5 3 - - NE 1017,1 16 0,0
14.08.2020 01:00:00 24,4 21,7 5 3 - - E 1017,2 16 -
14.08.2020 00:00:00 24,4 21,7 8 4 - - NE 1017,8 16 -
13.08.2020 23:00:00 24,4 21,7 9 5 - - NE 1018,2 16 0,0
13.08.2020 22:00:00 25,0 21,1 9 5 - - ENE 1018,2 16 -
13.08.2020 21:00:00 25,0 21,7 9 5 - - ENE 1018,1 16 -
13.08.2020 20:00:00 25,0 21,1 13 7 - - ENE 1017,8 16 -
13.08.2020 19:00:00 25,6 22,2 11 6 - - E 1017,5 16 -
13.08.2020 18:00:00 25,0 21,7 8 4 - - NE 1017,5 16 -
13.08.2020 17:00:00 25,0 20,6 13 7 - - ENE 1017,9 16 -
13.08.2020 16:00:00 25,6 20,0 13 7 - - ENE 1018,1 16 -
13.08.2020 15:00:00 25,0 21,1 16 9 - - ENE 1018,6 16 0,0
13.08.2020 14:00:00 25,0 21,1 15 8 - - ENE 1018,6 13 0,0
13.08.2020 13:00:00 25,0 21,1 16 9 - - NE 1019,0 16 0,0
13.08.2020 12:00:00 25,0 21,1 5 3 - - N 1018,9 16 0,0
13.08.2020 11:00:00 24,4 19,4 5 3 - - NE 1019,3 10 0,3
13.08.2020 10:00:00 25,6 18,9 11 6 - - NE 1019,0 16 0,0
13.08.2020 09:00:00 26,1 17,8 15 8 - - NE 1018,6 16 -
13.08.2020 08:00:00 26,1 17,2 11 6 - - ENE 1018,7 16 0,0
13.08.2020 07:00:00 26,1 18,3 15 8 - - ENE 1018,5 16 -
13.08.2020 06:00:00 25,6 20,6 11 6 - - NE 1018,1 16 -
13.08.2020 05:00:00 25,6 22,2 8 4 - - E 1017,7 16 0,0
13.08.2020 04:00:00 26,1 22,2 9 5 - - E 1017,5 16 -
13.08.2020 03:00:00 26,7 21,7 0 0 - - N 1017,5 16 -
13.08.2020 02:00:00 26,7 21,7 8 4 - - NE 1017,6 16 0,0
13.08.2020 01:00:00 27,8 21,1 0 0 - - N 1017,5 16 -
13.08.2020 00:00:00 27,2 21,1 8 4 - - SSW 1017,6 16 -
12.08.2020 23:00:00 27,8 21,7 13 7 - - S 1017,2 16 0,0
12.08.2020 22:00:00 28,3 21,1 0 0 - - N 1016,9 16 -
12.08.2020 21:00:00 28,9 21,1 8 4 - - WSW 1016,7 16 -
12.08.2020 20:00:00 29,4 21,7 5 3 - - SW 1016,2 16 -
12.08.2020 19:00:00 29,4 22,2 9 5 - - S 1015,8 16 -
12.08.2020 18:00:00 28,3 23,9 5 3 - - S 1016,3 16 0,3
12.08.2020 17:00:00 26,1 21,7 13 7 - - SW 1016,3 15 4,1
12.08.2020 16:00:00 26,7 21,1 13 7 50 27 SSE 1015,5 6 3,3
12.08.2020 15:00:00 31,7 22,8 15 8 - - S 1015,3 16 -
12.08.2020 14:00:00 32,2 21,7 8 4 - - ENE 1015,6 16 0,0
12.08.2020 13:00:00 30,0 22,2 11 6 - - S 1016,0 16 0,0
12.08.2020 12:00:00 30,6 22,8 11 6 - - NE 1016,3 16 -
12.08.2020 11:00:00 30,0 23,3 11 6 - - NE 1016,4 16 0,0
12.08.2020 10:00:00 28,9 23,3 11 6 - - ENE 1016,2 16 -
12.08.2020 09:00:00 28,3 23,3 0 0 - - N 1016,1 16 -
12.08.2020 08:00:00 27,8 23,3 5 3 - - NE 1015,8 16 0,0
12.08.2020 07:00:00 27,2 23,3 0 0 - - N 1015,3 16 -
12.08.2020 06:00:00 26,7 23,3 15 8 - - S 1015,1 16 -
12.08.2020 05:00:00 27,2 22,8 11 6 - - SW 1014,9 16 0,0
12.08.2020 04:00:00 27,2 22,8 13 7 - - SW 1014,7 16 -
12.08.2020 03:00:00 27,2 22,8 11 6 - - SW 1014,4 16 -
12.08.2020 02:00:00 27,2 22,8 13 7 - - SSW 1014,4 16 0,0
12.08.2020 01:00:00 27,8 22,8 13 7 - - SSW 1014,3 16 -
12.08.2020 00:00:00 27,2 22,8 13 7 - - S 1014,2 16 -
11.08.2020 23:00:00 26,7 22,8 16 9 - - SSE 1013,8 16 0,0
11.08.2020 22:00:00 26,7 22,8 16 9 - - S 1013,8 16 -
11.08.2020 21:00:00 27,2 22,8 16 9 - - S 1013,3 16 -
11.08.2020 20:00:00 27,8 22,8 18 10 - - S 1012,9 16 -
11.08.2020 19:00:00 28,3 21,7 22 12 - - S 1012,8 16 -
11.08.2020 18:00:00 29,4 21,1 26 14 - - S 1013,1 16 -
11.08.2020 17:00:00 31,1 18,3 15 8 - - S 1013,0 16 0,0
11.08.2020 16:00:00 31,1 21,7 26 14 - - S 1013,5 16 -
11.08.2020 15:00:00 31,1 22,2 22 12 - - S 1013,6 16 -
11.08.2020 14:00:00 31,1 21,1 18 10 - - S 1014,3 16 0,0
11.08.2020 13:00:00 31,1 21,1 24 13 - - SSE 1014,8 16 -
11.08.2020 12:00:00 31,1 21,7 16 9 - - SSE 1015,2 16 -
11.08.2020 11:00:00 31,1 22,2 13 7 - - S 1015,3 16 0,0
11.08.2020 10:00:00 29,4 22,2 5 3 - - - 1015,2 16 -
11.08.2020 09:00:00 28,9 22,8 15 8 - - S 1015,1 16 -
11.08.2020 08:00:00 28,3 22,8 13 7 - - SSW 1014,9 16 0,0
11.08.2020 07:00:00 27,8 22,8 8 4 - - SW 1014,7 16 -
11.08.2020 06:00:00 27,2 22,2 9 5 - - SSW 1014,3 16 -
11.08.2020 05:00:00 27,2 22,2 9 5 - - SSW 1014,1 16 0,0
11.08.2020 04:00:00 27,2 22,2 11 6 - - SSW 1013,9 16 -
11.08.2020 03:00:00 27,8 22,2 11 6 - - SSW 1013,9 16 -
11.08.2020 02:00:00 28,3 21,7 13 7 - - SSW 1014,3 16 0,0
11.08.2020 01:00:00 28,3 21,7 16 9 - - SW 1014,4 16 -
11.08.2020 00:00:00 28,9 21,7 21 11 - - SW 1014,5 16 -
10.08.2020 23:00:00 29,4 22,2 18 10 - - SSW 1014,6 16 0,0
10.08.2020 22:00:00 28,9 22,8 15 8 - - S 1014,5 16 -
10.08.2020 21:00:00 28,9 22,2 15 8 - - S 1014,3 16 -
10.08.2020 20:00:00 30,0 22,2 16 9 - - S 1013,8 16 0,0
10.08.2020 19:00:00 31,7 21,1 18 10 - - S 1013,8 16 -
10.08.2020 18:00:00 31,7 21,1 16 9 - - S 1013,9 16 -
10.08.2020 17:00:00 32,2 21,1 26 14 - - S 1014,1 16 0,0
10.08.2020 16:00:00 33,3 20,6 29 16 - - SSE 1014,8 16 -
10.08.2020 15:00:00 33,3 20,0 21 11 - - S 1015,0 16 -
10.08.2020 14:00:00 34,4 15,6 18 10 - - SSW 1015,7 16 0,0
10.08.2020 13:00:00 33,9 16,7 9 5 - - - 1016,1 16 -
10.08.2020 12:00:00 32,8 19,4 8 4 - - NNE 1016,6 16 -
10.08.2020 11:00:00 31,1 19,4 0 0 - - N 1016,9 16 0,0
10.08.2020 10:00:00 29,4 20,6 5 3 - - NW 1017,0 16 -
10.08.2020 09:00:00 28,3 20,6 11 6 - - NW 1017,2 16 -
10.08.2020 08:00:00 27,8 22,2 0 0 - - N 1017,3 16 0,0
10.08.2020 07:00:00 26,1 22,2 8 4 - - SSW 1017,2 16 -
10.08.2020 06:00:00 26,1 21,7 11 6 - - SSW 1016,9 16 -
10.08.2020 05:00:00 26,1 21,7 11 6 - - SSW 1016,9 16 0,0
10.08.2020 04:00:00 26,1 21,1 11 6 - - SW 1016,8 16 -
10.08.2020 03:00:00 26,7 21,1 13 7 - - SSW 1016,8 16 -
10.08.2020 02:00:00 27,2 21,1 13 7 - - SW 1016,8 16 0,0
10.08.2020 01:00:00 27,2 21,1 15 8 - - SSW 1017,0 16 -
10.08.2020 00:00:00 27,8 20,6 16 9 - - SW 1017,3 16 -
09.08.2020 23:00:00 27,2 21,7 15 8 - - SSW 1017,3 16 0,0
09.08.2020 22:00:00 27,2 21,1 15 8 - - S 1017,5 16 -
09.08.2020 21:00:00 27,2 21,1 15 8 - - S 1017,1 16 -
09.08.2020 20:00:00 27,2 20,6 15 8 - - S 1016,8 16 0,0
09.08.2020 19:00:00 28,9 19,4 16 9 - - S 1016,6 16 -
09.08.2020 18:00:00 28,9 19,4 26 14 - - S 1016,9 16 -
09.08.2020 17:00:00 28,9 19,4 29 16 - - S 1017,1 16 0,0
09.08.2020 16:00:00 30,0 20,6 24 13 - - S 1017,5 16 -
09.08.2020 15:00:00 31,1 20,6 24 13 - - S 1017,8 16 -
09.08.2020 14:00:00 31,1 18,3 15 8 - - SSW 1018,4 16 0,0
09.08.2020 13:00:00 31,1 18,3 16 9 - - SSW 1018,9 16 -
09.08.2020 12:00:00 30,6 16,7 13 7 - - SSW 1019,3 16 -
09.08.2020 11:00:00 28,9 19,4 8 4 - - SW 1019,7 16 0,0
09.08.2020 10:00:00 27,8 20,6 11 6 - - SW 1019,9 13 -
09.08.2020 09:00:00 25,6 21,1 0 0 - - N 1020,3 13 -
09.08.2020 08:00:00 25,0 21,1 9 5 - - SSW 1020,5 13 0,0
09.08.2020 07:00:00 23,9 20,6 8 4 - - WSW 1020,2 16 -
09.08.2020 06:00:00 23,9 20,0 8 4 - - SSW 1020,3 16 -
09.08.2020 05:00:00 23,9 20,0 8 4 - - SSW 1019,9 16 0,0
09.08.2020 04:00:00 23,9 20,0 8 4 - - SSW 1019,8 16 -

tt = temperature
td = dewpoint
ff = wind speed
fx = gusts
dd = wind direction
ppp = reduced air pressure
vv = visibility
rr = precipitation

Next stations